Time,TemperatureF,DewpointF,PressureIn,WindDirection,WindDirectionDegrees,WindSpeedMPH,WindSpeedGustMPH,Humidity,HourlyPrecipIn,Conditions,Clouds,dailyrainin,SoftwareType,DateUTC
2013-01-25 00:01:00,19.9,3.9,30.17,South,173,0.0,3.0,49,0.00,,,0.00,WeatherCatV1.13B119,2013-01-25 06:01:00,
2013-01-25 00:06:00,19.9,3.4,30.17,South,173,0.0,0.0,48,0.00,,,0.00,WeatherCatV1.13B119,2013-01-25 06:06:00,
2013-01-25 00:11:00,19.9,3.9,30.17,South,173,0.0,1.0,49,0.00,,,0.00,WeatherCatV1.13B119,2013-01-25 06:11:00,
2013-01-25 00:16:00,19.9,3.9,30.17,South,173,0.0,0.0,49,0.00,,,0.00,WeatherCatV1.13B119,2013-01-25 06:16:00,
2013-01-25 00:21:00,19.7,3.7,30.17,South,173,0.0,1.0,49,0.00,,,0.00,WeatherCatV1.13B119,2013-01-25 06:21:00,
2013-01-25 00:26:00,19.5,3.5,30.17,South,173,0.0,1.0,49,0.00,,,0.00,WeatherCatV1.13B119,2013-01-25 06:26:00,
2013-01-25 00:31:00,19.4,3.8,30.14,South,173,0.0,1.0,50,0.00,,,0.00,WeatherCatV1.13B119,2013-01-25 06:31:00,
2013-01-25 00:36:00,19.2,3.6,30.14,South,173,0.0,0.0,50,0.00,,,0.00,WeatherCatV1.13B119,2013-01-25 06:36:00,
2013-01-25 00:41:00,19.2,3.6,30.14,South,173,0.0,0.0,50,0.00,,,0.00,WeatherCatV1.13B119,2013-01-25 06:41:00,
2013-01-25 00:46:00,19.1,3.6,30.15,South,173,0.0,0.0,50,0.00,,,0.00,WeatherCatV1.13B119,2013-01-25 06:46:00,
2013-01-25 00:51:00,19.1,3.6,30.15,South,173,0.0,0.0,50,0.00,,,0.00,WeatherCatV1.13B119,2013-01-25 06:51:00,
2013-01-25 00:56:00,19.1,4.0,30.15,South,173,0.0,0.0,51,0.00,,,0.00,WeatherCatV1.13B119,2013-01-25 06:56:00,
2013-01-25 01:01:00,19.1,4.0,30.15,South,173,0.0,0.0,51,0.00,,,0.00,WeatherCatV1.13B119,2013-01-25 07:01:00,
2013-01-25 01:06:00,18.9,3.8,30.15,South,173,0.0,0.0,51,0.00,,,0.00,WeatherCatV1.13B119,2013-01-25 07:06:00,
2013-01-25 01:11:00,18.9,3.8,30.15,South,173,0.0,0.0,51,0.00,,,0.00,WeatherCatV1.13B119,2013-01-25 07:11:00,
2013-01-25 01:16:00,18.8,4.1,30.12,South,173,0.0,1.0,52,0.00,,,0.00,WeatherCatV1.13B119,2013-01-25 07:16:00,
2013-01-25 01:21:00,18.6,4.3,30.12,South,173,0.0,0.0,53,0.00,,,0.00,WeatherCatV1.13B119,2013-01-25 07:21:00,
2013-01-25 01:26:00,18.6,4.3,30.12,South,173,0.0,2.0,53,0.00,,,0.00,WeatherCatV1.13B119,2013-01-25 07:26:00,
2013-01-25 01:31:00,18.4,4.2,30.12,South,173,0.0,2.0,53,0.00,,,0.00,WeatherCatV1.13B119,2013-01-25 07:31:00,
2013-01-25 01:36:00,18.3,4.1,30.12,South,173,0.0,0.0,53,0.00,,,0.00,WeatherCatV1.13B119,2013-01-25 07:36:00,
2013-01-25 01:41:00,18.3,4.1,30.12,South,173,0.0,0.0,53,0.00,,,0.00,WeatherCatV1.13B119,2013-01-25 07:41:00,
2013-01-25 01:46:00,18.3,4.1,30.12,South,173,0.0,0.0,53,0.00,,,0.00,WeatherCatV1.13B119,2013-01-25 07:46:00,
2013-01-25 01:51:00,18.1,4.3,30.12,South,173,1.0,1.0,54,0.00,,,0.00,WeatherCatV1.13B119,2013-01-25 07:51:00,
2013-01-25 01:56:00,18.0,4.2,30.12,South,173,0.0,1.0,54,0.00,,,0.00,WeatherCatV1.13B119,2013-01-25 07:56:00,
2013-01-25 02:01:00,17.8,4.4,30.11,South,173,1.0,1.0,55,0.00,,,0.00,WeatherCatV1.13B119,2013-01-25 08:01:00,
2013-01-25 02:06:00,17.8,4.4,30.11,South,173,0.0,2.0,55,0.00,,,0.00,WeatherCatV1.13B119,2013-01-25 08:06:00,
2013-01-25 02:11:00,17.7,4.3,30.11,South,173,0.0,2.0,55,0.00,,,0.00,WeatherCatV1.13B119,2013-01-25 08:11:00,
2013-01-25 02:16:00,17.5,4.5,30.12,South,173,1.0,1.0,56,0.00,,,0.00,WeatherCatV1.13B119,2013-01-25 08:16:00,
2013-01-25 02:21:00,17.5,4.5,30.12,South,173,0.0,1.0,56,0.00,,,0.00,WeatherCatV1.13B119,2013-01-25 08:21:00,
2013-01-25 02:26:00,17.3,4.3,30.12,South,173,0.0,1.0,56,0.00,,,0.00,WeatherCatV1.13B119,2013-01-25 08:26:00,
2013-01-25 02:31:00,17.3,4.3,30.12,South,173,0.0,0.0,56,0.00,,,0.00,WeatherCatV1.13B119,2013-01-25 08:31:00,
2013-01-25 02:36:00,17.3,4.3,30.12,South,173,0.0,1.0,56,0.00,,,0.00,WeatherCatV1.13B119,2013-01-25 08:36:00,
2013-01-25 02:41:00,17.3,4.3,30.12,South,173,0.0,2.0,56,0.00,,,0.00,WeatherCatV1.13B119,2013-01-25 08:41:00,
2013-01-25 02:46:00,17.2,4.2,30.11,South,173,0.0,0.0,56,0.00,,,0.00,WeatherCatV1.13B119,2013-01-25 08:46:00,
2013-01-25 02:51:00,17.2,4.6,30.11,South,173,0.0,1.0,57,0.00,,,0.00,WeatherCatV1.13B119,2013-01-25 08:51:00,
2013-01-25 02:56:00,17.2,4.6,30.11,South,173,1.0,3.0,57,0.00,,,0.00,WeatherCatV1.13B119,2013-01-25 08:56:00,
2013-01-25 03:01:00,17.2,4.6,30.11,South,173,1.0,1.0,57,0.00,,,0.00,WeatherCatV1.13B119,2013-01-25 09:01:00,
2013-01-25 03:06:00,17.2,4.6,30.11,South,173,2.0,2.0,57,0.00,,,0.00,WeatherCatV1.13B119,2013-01-25 09:06:00,
2013-01-25 03:11:00,17.2,4.6,30.11,South,173,0.0,3.0,57,0.00,,,0.00,WeatherCatV1.13B119,2013-01-25 09:11:00,
2013-01-25 03:16:00,17.2,4.6,30.10,South,173,0.0,1.0,57,0.00,,,0.00,WeatherCatV1.13B119,2013-01-25 09:16:00,
2013-01-25 03:21:00,17.2,4.6,30.10,South,173,0.0,2.0,57,0.00,,,0.00,WeatherCatV1.13B119,2013-01-25 09:21:00,
2013-01-25 03:26:00,17.3,4.7,30.10,South,173,0.0,0.0,57,0.00,,,0.00,WeatherCatV1.13B119,2013-01-25 09:26:00,
2013-01-25 03:31:00,17.3,4.7,30.10,South,173,0.0,0.0,57,0.00,,,0.00,WeatherCatV1.13B119,2013-01-25 09:31:00,
2013-01-25 03:36:00,17.3,4.7,30.10,South,173,0.0,1.0,57,0.00,,,0.00,WeatherCatV1.13B119,2013-01-25 09:36:00,
2013-01-25 03:41:00,17.3,4.7,30.10,South,173,0.0,0.0,57,0.00,,,0.00,WeatherCatV1.13B119,2013-01-25 09:41:00,
2013-01-25 03:46:00,17.2,4.6,30.10,South,173,0.0,1.0,57,0.00,,,0.00,WeatherCatV1.13B119,2013-01-25 09:46:00,
2013-01-25 03:51:00,17.2,4.6,30.10,South,173,0.0,0.0,57,0.00,,,0.00,WeatherCatV1.13B119,2013-01-25 09:51:00,
2013-01-25 03:56:00,17.0,4.8,30.10,South,173,0.0,1.0,58,0.00,,,0.00,WeatherCatV1.13B119,2013-01-25 09:56:00,
2013-01-25 04:01:00,16.9,4.7,30.10,South,173,1.0,2.0,58,0.00,,,0.00,WeatherCatV1.13B119,2013-01-25 10:01:00,
2013-01-25 04:06:00,16.9,4.7,30.10,South,173,0.0,1.0,58,0.00,,,0.00,WeatherCatV1.13B119,2013-01-25 10:06:00,
2013-01-25 04:11:00,16.9,4.7,30.10,South,173,0.0,1.0,58,0.00,,,0.00,WeatherCatV1.13B119,2013-01-25 10:11:00,
2013-01-25 04:16:00,16.9,4.7,30.09,South,173,0.0,0.0,58,0.00,,,0.00,WeatherCatV1.13B119,2013-01-25 10:16:00,
2013-01-25 04:21:00,16.9,4.7,30.09,South,173,2.0,2.0,58,0.00,,,0.00,WeatherCatV1.13B119,2013-01-25 10:21:00,
2013-01-25 04:26:00,16.7,4.5,30.09,South,173,0.0,2.0,58,0.00,,,0.00,WeatherCatV1.13B119,2013-01-25 10:26:00,
2013-01-25 04:31:00,16.7,4.9,30.07,South,173,0.0,3.0,59,0.00,,,0.00,WeatherCatV1.13B119,2013-01-25 10:31:00,
2013-01-25 04:36:00,16.7,4.9,30.07,South,173,0.0,2.0,59,0.00,,,0.00,WeatherCatV1.13B119,2013-01-25 10:36:00,
2013-01-25 04:41:00,16.9,5.1,30.07,South,173,0.0,0.0,59,0.00,,,0.00,WeatherCatV1.13B119,2013-01-25 10:41:00,
2013-01-25 04:46:00,17.0,5.2,30.09,South,173,0.0,0.0,59,0.00,,,0.00,WeatherCatV1.13B119,2013-01-25 10:46:00,
2013-01-25 04:51:00,17.0,4.8,30.09,South,173,0.0,0.0,58,0.00,,,0.00,WeatherCatV1.13B119,2013-01-25 10:51:00,
2013-01-25 04:56:00,17.0,4.8,30.09,South,173,0.0,0.0,58,0.00,,,0.00,WeatherCatV1.13B119,2013-01-25 10:56:00,
2013-01-25 05:01:00,17.0,4.8,30.09,South,173,0.0,0.0,58,0.00,,,0.00,WeatherCatV1.13B119,2013-01-25 11:01:00,
2013-01-25 05:06:00,16.9,4.7,30.09,South,173,0.0,0.0,58,0.00,,,0.00,WeatherCatV1.13B119,2013-01-25 11:06:00,
2013-01-25 05:11:00,16.5,4.3,30.09,South,173,0.0,0.0,58,0.00,,,0.00,WeatherCatV1.13B119,2013-01-25 11:11:00,
2013-01-25 05:16:00,16.5,4.7,30.08,South,173,0.0,1.0,59,0.00,,,0.00,WeatherCatV1.13B119,2013-01-25 11:16:00,
2013-01-25 05:21:00,16.4,4.6,30.08,South,173,0.0,0.0,59,0.00,,,0.00,WeatherCatV1.13B119,2013-01-25 11:21:00,
2013-01-25 05:26:00,16.4,4.6,30.08,South,173,0.0,0.0,59,0.00,,,0.00,WeatherCatV1.13B119,2013-01-25 11:26:00,
2013-01-25 05:31:00,16.4,4.6,30.09,South,173,0.0,0.0,59,0.00,,,0.00,WeatherCatV1.13B119,2013-01-25 11:31:00,
2013-01-25 05:36:00,16.4,4.6,30.09,South,173,0.0,0.0,59,0.00,,,0.00,WeatherCatV1.13B119,2013-01-25 11:36:00,
2013-01-25 05:41:00,16.4,4.6,30.09,South,173,0.0,0.0,59,0.00,,,0.00,WeatherCatV1.13B119,2013-01-25 11:41:00,
2013-01-25 05:46:00,16.4,4.6,30.09,South,173,0.0,0.0,59,0.00,,,0.00,WeatherCatV1.13B119,2013-01-25 11:46:00,
2013-01-25 05:51:00,16.4,5.0,30.09,South,173,0.0,0.0,60,0.00,,,0.00,WeatherCatV1.13B119,2013-01-25 11:51:00,
2013-01-25 05:56:00,16.4,5.0,30.09,South,173,0.0,0.0,60,0.00,,,0.00,WeatherCatV1.13B119,2013-01-25 11:56:00,
2013-01-25 06:01:00,16.4,5.0,30.09,South,173,0.0,1.0,60,0.00,,,0.00,WeatherCatV1.13B119,2013-01-25 12:01:00,
2013-01-25 06:06:00,16.4,5.0,30.09,South,173,0.0,0.0,60,0.00,,,0.00,WeatherCatV1.13B119,2013-01-25 12:06:00,
2013-01-25 06:11:00,16.2,4.8,30.09,South,173,0.0,0.0,60,0.00,,,0.00,WeatherCatV1.13B119,2013-01-25 12:11:00,
2013-01-25 06:16:00,16.1,4.7,30.09,South,173,0.0,0.0,60,0.00,,,0.00,WeatherCatV1.13B119,2013-01-25 12:16:00,
2013-01-25 06:21:00,16.1,4.7,30.09,South,173,0.0,0.0,60,0.00,,,0.00,WeatherCatV1.13B119,2013-01-25 12:21:00,
2013-01-25 06:26:00,16.1,4.7,30.09,South,173,0.0,0.0,60,0.00,,,0.00,WeatherCatV1.13B119,2013-01-25 12:26:00,
2013-01-25 06:31:00,15.9,4.5,30.09,South,173,0.0,0.0,60,0.00,,,0.00,WeatherCatV1.13B119,2013-01-25 12:31:00,
2013-01-25 06:36:00,15.9,4.5,30.09,South,173,0.0,0.0,60,0.00,,,0.00,WeatherCatV1.13B119,2013-01-25 12:36:00,
2013-01-25 06:41:00,15.9,4.9,30.09,South,173,0.0,0.0,61,0.00,,,0.00,WeatherCatV1.13B119,2013-01-25 12:41:00,
2013-01-25 06:46:00,15.9,4.5,30.10,South,173,0.0,0.0,60,0.00,,,0.00,WeatherCatV1.13B119,2013-01-25 12:46:00,
2013-01-25 06:51:00,15.9,4.5,30.10,South,173,0.0,1.0,60,0.00,,,0.00,WeatherCatV1.13B119,2013-01-25 12:51:00,
2013-01-25 06:56:00,15.7,4.7,30.10,South,173,0.0,1.0,61,0.00,,,0.00,WeatherCatV1.13B119,2013-01-25 12:56:00,
2013-01-25 07:01:00,15.9,4.9,30.10,South,173,0.0,0.0,61,0.00,,,0.00,WeatherCatV1.13B119,2013-01-25 13:01:00,
2013-01-25 07:06:00,16.1,5.1,30.10,South,173,0.0,1.0,61,0.00,,,0.00,WeatherCatV1.13B119,2013-01-25 13:06:00,
2013-01-25 07:11:00,16.1,5.1,30.10,South,173,1.0,1.0,61,0.00,,,0.00,WeatherCatV1.13B119,2013-01-25 13:11:00,
2013-01-25 07:16:00,16.2,5.1,30.10,South,173,0.0,1.0,61,0.00,,,0.00,WeatherCatV1.13B119,2013-01-25 13:16:00,
2013-01-25 07:21:00,16.2,5.1,30.10,South,173,0.0,0.0,61,0.00,,,0.00,WeatherCatV1.13B119,2013-01-25 13:21:00,
2013-01-25 07:26:00,16.1,5.1,30.10,South,173,0.0,0.0,61,0.00,,,0.00,WeatherCatV1.13B119,2013-01-25 13:26:00,
2013-01-25 07:31:00,16.1,5.4,30.10,South,173,1.0,1.0,62,0.00,,,0.00,WeatherCatV1.13B119,2013-01-25 13:31:00,
2013-01-25 07:36:00,16.1,5.4,30.10,South,173,0.0,2.0,62,0.00,,,0.00,WeatherCatV1.13B119,2013-01-25 13:36:00,
2013-01-25 07:41:00,16.2,5.5,30.10,South,173,0.0,4.0,62,0.00,,,0.00,WeatherCatV1.13B119,2013-01-25 13:41:00,
2013-01-25 07:46:00,16.4,6.0,30.10,South,173,0.0,1.0,63,0.00,,,0.00,WeatherCatV1.13B119,2013-01-25 13:46:00,
2013-01-25 07:51:00,16.5,6.1,30.10,South,173,0.0,2.0,63,0.00,,,0.00,WeatherCatV1.13B119,2013-01-25 13:51:00,
2013-01-25 07:56:00,16.7,6.3,30.10,South,173,0.0,2.0,63,0.00,,,0.00,WeatherCatV1.13B119,2013-01-25 13:56:00,
2013-01-25 08:01:00,16.9,6.9,30.11,South,173,0.0,3.0,64,0.00,,,0.00,WeatherCatV1.13B119,2013-01-25 14:01:00,
2013-01-25 08:06:00,16.9,6.9,30.11,SW,229,0.0,4.0,64,0.00,,,0.00,WeatherCatV1.13B119,2013-01-25 14:06:00,
2013-01-25 08:11:00,17.2,7.1,30.11,SW,229,0.0,2.0,64,0.00,,,0.00,WeatherCatV1.13B119,2013-01-25 14:11:00,
2013-01-25 08:16:00,17.3,7.2,30.11,SW,229,0.0,2.0,64,0.00,,,0.00,WeatherCatV1.13B119,2013-01-25 14:16:00,
2013-01-25 08:21:00,17.5,7.4,30.11,SW,229,0.0,1.0,64,0.00,,,0.00,WeatherCatV1.13B119,2013-01-25 14:21:00,
2013-01-25 08:26:00,17.7,7.6,30.11,SW,229,0.0,1.0,64,0.00,,,0.00,WeatherCatV1.13B119,2013-01-25 14:26:00,
2013-01-25 08:31:00,18.0,7.9,30.12,SW,229,1.0,2.0,64,0.00,,,0.00,WeatherCatV1.13B119,2013-01-25 14:31:00,
2013-01-25 08:36:00,18.3,7.8,30.12,SW,229,0.0,1.0,63,0.00,,,0.00,WeatherCatV1.13B119,2013-01-25 14:36:00,
2013-01-25 08:41:00,18.6,8.1,30.12,SW,229,1.0,4.0,63,0.00,,,0.00,WeatherCatV1.13B119,2013-01-25 14:41:00,
2013-01-25 08:46:00,18.9,8.4,30.11,WSW,244,3.0,6.0,63,0.00,,,0.00,WeatherCatV1.13B119,2013-01-25 14:46:00,
2013-01-25 08:51:00,19.2,8.7,30.11,WSW,254,0.0,6.0,63,0.00,,,0.00,WeatherCatV1.13B119,2013-01-25 14:51:00,
2013-01-25 08:56:00,19.7,9.2,30.11,WSW,254,2.0,4.0,63,0.00,,,0.00,WeatherCatV1.13B119,2013-01-25 14:56:00,
2013-01-25 09:01:00,20.0,9.5,30.12,WSW,254,3.0,4.0,63,0.00,,,0.00,WeatherCatV1.13B119,2013-01-25 15:01:00,
2013-01-25 09:06:00,20.6,10.0,30.12,WSW,255,4.0,5.0,63,0.00,,,0.00,WeatherCatV1.13B119,2013-01-25 15:06:00,
2013-01-25 09:11:00,21.1,10.1,30.12,West,271,2.0,4.0,62,0.00,,,0.00,WeatherCatV1.13B119,2013-01-25 15:11:00,
2013-01-25 09:16:00,21.6,10.6,30.13,West,269,2.0,2.0,62,0.00,,,0.00,WeatherCatV1.13B119,2013-01-25 15:16:00,
2013-01-25 09:21:00,22.2,11.2,30.13,West,268,0.0,4.0,62,0.00,,,0.00,WeatherCatV1.13B119,2013-01-25 15:21:00,
2013-01-25 09:26:00,22.7,11.3,30.13,West,268,0.0,2.0,61,0.00,,,0.00,WeatherCatV1.13B119,2013-01-25 15:26:00,
2013-01-25 09:31:00,23.3,11.9,30.12,West,262,3.0,3.0,61,0.00,,,0.00,WeatherCatV1.13B119,2013-01-25 15:31:00,
2013-01-25 09:36:00,23.8,12.3,30.12,West,262,0.0,5.0,61,0.00,,,0.00,WeatherCatV1.13B119,2013-01-25 15:36:00,
2013-01-25 09:41:00,24.2,12.3,30.12,West,261,2.0,3.0,60,0.00,,,0.00,WeatherCatV1.13B119,2013-01-25 15:41:00,
2013-01-25 09:46:00,24.7,12.8,30.12,West,261,2.0,2.0,60,0.00,,,0.00,WeatherCatV1.13B119,2013-01-25 15:46:00,
2013-01-25 09:51:00,25.3,13.4,30.12,West,261,0.0,3.0,60,0.00,,,0.00,WeatherCatV1.13B119,2013-01-25 15:51:00,
2013-01-25 09:56:00,25.8,13.5,30.12,West,261,3.0,5.0,59,0.00,,,0.00,WeatherCatV1.13B119,2013-01-25 15:56:00,
2013-01-25 10:01:00,26.3,13.9,30.13,West,261,0.0,3.0,59,0.00,,,0.00,WeatherCatV1.13B119,2013-01-25 16:01:00,
2013-01-25 10:06:00,26.9,14.5,30.13,West,261,0.0,3.0,59,0.00,,,0.00,WeatherCatV1.13B119,2013-01-25 16:06:00,
2013-01-25 10:11:00,27.3,14.9,30.13,West,261,0.0,2.0,59,0.00,,,0.00,WeatherCatV1.13B119,2013-01-25 16:11:00,
2013-01-25 10:16:00,27.9,15.1,30.13,West,261,0.0,3.0,58,0.00,,,0.00,WeatherCatV1.13B119,2013-01-25 16:16:00,
2013-01-25 10:21:00,28.7,15.8,30.13,West,261,0.0,2.0,58,0.00,,,0.00,WeatherCatV1.13B119,2013-01-25 16:21:00,
2013-01-25 10:26:00,29.3,16.0,30.13,West,261,3.0,4.0,57,0.00,,,0.00,WeatherCatV1.13B119,2013-01-25 16:26:00,
2013-01-25 10:31:00,29.7,16.4,30.13,West,261,2.0,2.0,57,0.00,,,0.00,WeatherCatV1.13B119,2013-01-25 16:31:00,
2013-01-25 10:36:00,30.3,16.9,30.13,West,261,0.0,0.0,57,0.00,,,0.00,WeatherCatV1.13B119,2013-01-25 16:36:00,
2013-01-25 10:41:00,30.7,16.9,30.13,WNW,282,6.0,6.0,56,0.00,,,0.00,WeatherCatV1.13B119,2013-01-25 16:41:00,
2013-01-25 10:46:00,31.2,16.9,30.13,NW,311,0.0,4.0,55,0.00,,,0.00,WeatherCatV1.13B119,2013-01-25 16:46:00,
2013-01-25 10:51:00,31.6,16.9,30.13,NW,313,3.0,4.0,54,0.00,,,0.00,WeatherCatV1.13B119,2013-01-25 16:51:00,
2013-01-25 10:56:00,32.1,17.8,30.13,NW,313,1.0,3.0,55,0.00,,,0.00,WeatherCatV1.13B119,2013-01-25 16:56:00,
2013-01-25 11:01:00,32.8,18.4,30.13,NW,318,4.0,4.0,55,0.00,,,0.00,WeatherCatV1.13B119,2013-01-25 17:01:00,
2013-01-25 11:06:00,33.5,19.1,30.13,NW,318,1.0,2.0,55,0.00,,,0.00,WeatherCatV1.13B119,2013-01-25 17:06:00,
2013-01-25 11:11:00,34.1,19.2,30.13,NW,318,1.0,5.0,54,0.00,,,0.00,WeatherCatV1.13B119,2013-01-25 17:11:00,
2013-01-25 11:16:00,34.7,19.8,30.13,NW,318,0.0,3.0,54,0.00,,,0.00,WeatherCatV1.13B119,2013-01-25 17:16:00,
2013-01-25 11:21:00,35.5,21.0,30.13,NW,318,1.0,1.0,55,0.00,,,0.00,WeatherCatV1.13B119,2013-01-25 17:21:00,
2013-01-25 11:26:00,36.2,21.2,30.13,NW,326,1.0,9.0,54,0.00,,,0.00,WeatherCatV1.13B119,2013-01-25 17:26:00,
2013-01-25 11:31:00,36.8,21.7,30.14,NW,308,0.0,6.0,54,0.00,,,0.00,WeatherCatV1.13B119,2013-01-25 17:31:00,
2013-01-25 11:36:00,37.3,22.2,30.14,NW,314,2.0,10.0,54,0.00,,,0.00,WeatherCatV1.13B119,2013-01-25 17:36:00,
2013-01-25 11:41:00,37.8,22.2,30.14,NNW,337,7.0,7.0,53,0.00,,,0.00,WeatherCatV1.13B119,2013-01-25 17:41:00,
2013-01-25 11:46:00,37.9,22.3,30.13,NW,316,1.0,9.0,53,0.00,,,0.00,WeatherCatV1.13B119,2013-01-25 17:46:00,
2013-01-25 11:51:00,38.3,22.2,30.13,NW,316,3.0,4.0,52,0.00,,,0.00,WeatherCatV1.13B119,2013-01-25 17:51:00,
2013-01-25 11:56:00,38.5,22.0,30.13,NW,323,5.0,7.0,51,0.00,,,0.00,WeatherCatV1.13B119,2013-01-25 17:56:00,
2013-01-25 12:01:00,38.8,22.2,30.12,NW,323,0.0,2.0,51,0.00,,,0.00,WeatherCatV1.13B119,2013-01-25 18:01:00,
2013-01-25 12:06:00,39.3,22.2,30.12,NW,319,1.0,3.0,50,0.00,,,0.00,WeatherCatV1.13B119,2013-01-25 18:06:00,
2013-01-25 12:11:00,39.9,22.3,30.12,WNW,284,1.0,4.0,49,0.00,,,0.00,WeatherCatV1.13B119,2013-01-25 18:11:00,
2013-01-25 12:16:00,40.3,22.7,30.12,West,261,3.0,4.0,49,0.00,,,0.00,WeatherCatV1.13B119,2013-01-25 18:16:00,
2013-01-25 12:21:00,40.6,22.5,30.12,NW,321,5.0,6.0,48,0.00,,,0.00,WeatherCatV1.13B119,2013-01-25 18:21:00,
2013-01-25 12:26:00,40.8,22.6,30.12,West,273,1.0,10.0,48,0.00,,,0.00,WeatherCatV1.13B119,2013-01-25 18:26:00,
2013-01-25 12:31:00,40.9,22.7,30.11,NW,325,3.0,5.0,48,0.00,,,0.00,WeatherCatV1.13B119,2013-01-25 18:31:00,
2013-01-25 12:36:00,41.1,22.9,30.11,NW,310,3.0,4.0,48,0.00,,,0.00,WeatherCatV1.13B119,2013-01-25 18:36:00,
2013-01-25 12:41:00,41.2,22.5,30.11,West,280,4.0,6.0,47,0.00,,,0.00,WeatherCatV1.13B119,2013-01-25 18:41:00,
2013-01-25 12:46:00,41.3,22.6,30.10,WNW,296,2.0,6.0,47,0.00,,,0.00,WeatherCatV1.13B119,2013-01-25 18:46:00,
2013-01-25 12:51:00,41.3,22.1,30.10,NW,322,3.0,7.0,46,0.00,,,0.00,WeatherCatV1.13B119,2013-01-25 18:51:00,
2013-01-25 12:56:00,41.3,22.6,30.10,NW,321,3.0,4.0,47,0.00,,,0.00,WeatherCatV1.13B119,2013-01-25 18:56:00,
2013-01-25 13:01:00,41.8,22.6,30.09,NNW,344,7.0,7.0,46,0.00,,,0.00,WeatherCatV1.13B119,2013-01-25 19:01:00,
2013-01-25 13:06:00,42.1,22.8,30.09,West,267,3.0,3.0,46,0.00,,,0.00,WeatherCatV1.13B119,2013-01-25 19:06:00,
2013-01-25 13:11:00,42.5,22.7,30.09,West,263,2.0,3.0,45,0.00,,,0.00,WeatherCatV1.13B119,2013-01-25 19:11:00,
2013-01-25 13:16:00,43.2,22.8,30.09,West,264,0.0,3.0,44,0.00,,,0.00,WeatherCatV1.13B119,2013-01-25 19:16:00,
2013-01-25 13:21:00,43.8,23.3,30.09,West,264,0.0,1.0,44,0.00,,,0.00,WeatherCatV1.13B119,2013-01-25 19:21:00,
2013-01-25 13:26:00,44.1,23.0,30.09,NNW,327,2.0,10.0,43,0.00,,,0.00,WeatherCatV1.13B119,2013-01-25 19:26:00,
2013-01-25 13:31:00,44.2,22.6,30.08,NNW,332,1.0,9.0,42,0.00,,,0.00,WeatherCatV1.13B119,2013-01-25 19:31:00,
2013-01-25 13:36:00,44.3,23.2,30.08,NNW,345,1.0,7.0,43,0.00,,,0.00,WeatherCatV1.13B119,2013-01-25 19:36:00,
2013-01-25 13:41:00,44.6,22.9,30.08,NW,318,4.0,4.0,42,0.00,,,0.00,WeatherCatV1.13B119,2013-01-25 19:41:00,
2013-01-25 13:46:00,44.9,23.2,30.08,WSW,250,0.0,9.0,42,0.00,,,0.00,WeatherCatV1.13B119,2013-01-25 19:46:00,
2013-01-25 13:51:00,45.2,22.9,30.08,NW,325,3.0,7.0,41,0.00,,,0.00,WeatherCatV1.13B119,2013-01-25 19:51:00,
2013-01-25 13:56:00,45.5,22.6,30.08,NNW,339,0.0,6.0,40,0.00,,,0.00,WeatherCatV1.13B119,2013-01-25 19:56:00,
2013-01-25 14:01:00,45.8,22.9,30.07,NW,307,4.0,4.0,40,0.00,,,0.00,WeatherCatV1.13B119,2013-01-25 20:01:00,
2013-01-25 14:06:00,45.8,22.9,30.07,West,273,3.0,3.0,40,0.00,,,0.00,WeatherCatV1.13B119,2013-01-25 20:06:00,
2013-01-25 14:11:00,46.1,23.1,30.07,West,265,0.0,4.0,40,0.00,,,0.00,WeatherCatV1.13B119,2013-01-25 20:11:00,
2013-01-25 14:16:00,46.2,23.2,30.07,NW,304,0.0,3.0,40,0.00,,,0.00,WeatherCatV1.13B119,2013-01-25 20:16:00,
2013-01-25 14:21:00,46.2,22.6,30.07,NW,313,1.0,6.0,39,0.00,,,0.00,WeatherCatV1.13B119,2013-01-25 20:21:00,
2013-01-25 14:26:00,46.4,22.8,30.07,NW,313,0.0,5.0,39,0.00,,,0.00,WeatherCatV1.13B119,2013-01-25 20:26:00,
2013-01-25 14:31:00,46.5,22.9,30.07,NW,312,5.0,5.0,39,0.00,,,0.00,WeatherCatV1.13B119,2013-01-25 20:31:00,
2013-01-25 14:36:00,46.5,22.9,30.07,West,265,0.0,5.0,39,0.00,,,0.00,WeatherCatV1.13B119,2013-01-25 20:36:00,
2013-01-25 14:41:00,46.8,23.2,30.07,NNW,331,5.0,5.0,39,0.00,,,0.00,WeatherCatV1.13B119,2013-01-25 20:41:00,
2013-01-25 14:46:00,46.8,23.2,30.06,NNW,331,0.0,2.0,39,0.00,,,0.00,WeatherCatV1.13B119,2013-01-25 20:46:00,
2013-01-25 14:51:00,47.0,23.3,30.06,NW,321,5.0,7.0,39,0.00,,,0.00,WeatherCatV1.13B119,2013-01-25 20:51:00,
2013-01-25 14:56:00,46.8,23.8,30.06,NW,321,1.0,7.0,40,0.00,,,0.00,WeatherCatV1.13B119,2013-01-25 20:56:00,
2013-01-25 15:01:00,47.0,23.9,30.06,NW,315,1.0,4.0,40,0.00,,,0.00,WeatherCatV1.13B119,2013-01-25 21:01:00,
2013-01-25 15:06:00,47.0,23.9,30.06,NW,315,2.0,4.0,40,0.00,,,0.00,WeatherCatV1.13B119,2013-01-25 21:06:00,
2013-01-25 15:11:00,47.0,23.9,30.06,NW,323,4.0,4.0,40,0.00,,,0.00,WeatherCatV1.13B119,2013-01-25 21:11:00,
2013-01-25 15:16:00,47.3,23.6,30.06,West,281,1.0,6.0,39,0.00,,,0.00,WeatherCatV1.13B119,2013-01-25 21:16:00,
2013-01-25 15:21:00,47.4,23.7,30.06,NNW,329,3.0,4.0,39,0.00,,,0.00,WeatherCatV1.13B119,2013-01-25 21:21:00,
2013-01-25 15:26:00,47.3,23.6,30.06,North,355,0.0,4.0,39,0.00,,,0.00,WeatherCatV1.13B119,2013-01-25 21:26:00,
2013-01-25 15:31:00,47.4,23.7,30.06,NNW,347,1.0,4.0,39,0.00,,,0.00,WeatherCatV1.13B119,2013-01-25 21:31:00,
2013-01-25 15:36:00,47.4,23.1,30.06,NNW,339,0.0,5.0,38,0.00,,,0.00,WeatherCatV1.13B119,2013-01-25 21:36:00,
2013-01-25 15:41:00,47.6,23.9,30.06,NNW,338,0.0,1.0,39,0.00,,,0.00,WeatherCatV1.13B119,2013-01-25 21:41:00,
2013-01-25 15:46:00,47.9,23.5,30.07,West,260,0.0,7.0,38,0.00,,,0.00,WeatherCatV1.13B119,2013-01-25 21:46:00,
2013-01-25 15:51:00,47.9,22.9,30.07,NW,311,0.0,2.0,37,0.00,,,0.00,WeatherCatV1.13B119,2013-01-25 21:51:00,
2013-01-25 15:56:00,47.9,22.2,30.07,West,268,4.0,5.0,36,0.00,,,0.00,WeatherCatV1.13B119,2013-01-25 21:56:00,
2013-01-25 16:01:00,47.7,22.1,30.08,NW,325,1.0,6.0,36,0.00,,,0.00,WeatherCatV1.13B119,2013-01-25 22:01:00,
2013-01-25 16:06:00,47.7,22.7,30.08,North,355,6.0,6.0,37,0.00,,,0.00,WeatherCatV1.13B119,2013-01-25 22:06:00,
2013-01-25 16:11:00,47.7,22.7,30.08,NNW,348,3.0,6.0,37,0.00,,,0.00,WeatherCatV1.13B119,2013-01-25 22:11:00,
2013-01-25 16:16:00,47.4,23.1,30.08,North,351,4.0,6.0,38,0.00,,,0.00,WeatherCatV1.13B119,2013-01-25 22:16:00,
2013-01-25 16:21:00,47.1,23.4,30.08,NNW,341,0.0,3.0,39,0.00,,,0.00,WeatherCatV1.13B119,2013-01-25 22:21:00,
2013-01-25 16:26:00,47.0,23.3,30.08,NNW,340,1.0,2.0,39,0.00,,,0.00,WeatherCatV1.13B119,2013-01-25 22:26:00,
2013-01-25 16:31:00,46.8,23.2,30.08,NNW,333,0.0,4.0,39,0.00,,,0.00,WeatherCatV1.13B119,2013-01-25 22:31:00,
2013-01-25 16:36:00,46.5,23.5,30.08,NNW,333,2.0,4.0,40,0.00,,,0.00,WeatherCatV1.13B119,2013-01-25 22:36:00,
2013-01-25 16:41:00,46.1,22.5,30.08,NNW,330,1.0,7.0,39,0.00,,,0.00,WeatherCatV1.13B119,2013-01-25 22:41:00,
2013-01-25 16:46:00,45.5,22.6,30.10,NNW,330,0.0,4.0,40,0.00,,,0.00,WeatherCatV1.13B119,2013-01-25 22:46:00,
2013-01-25 16:51:00,44.9,22.1,30.10,NW,325,2.0,4.0,40,0.00,,,0.00,WeatherCatV1.13B119,2013-01-25 22:51:00,
2013-01-25 16:56:00,44.3,21.5,30.10,NW,323,0.0,6.0,40,0.00,,,0.00,WeatherCatV1.13B119,2013-01-25 22:56:00,
2013-01-25 17:01:00,43.9,21.2,30.10,NW,323,2.0,3.0,40,0.00,,,0.00,WeatherCatV1.13B119,2013-01-25 23:01:00,
2013-01-25 17:06:00,43.6,21.5,30.10,NW,321,0.0,1.0,41,0.00,,,0.00,WeatherCatV1.13B119,2013-01-25 23:06:00,
2013-01-25 17:11:00,43.2,21.1,30.10,NW,321,0.0,2.0,41,0.00,,,0.00,WeatherCatV1.13B119,2013-01-25 23:11:00,
2013-01-25 17:16:00,42.9,21.4,30.10,NW,321,0.0,0.0,42,0.00,,,0.00,WeatherCatV1.13B119,2013-01-25 23:16:00,
2013-01-25 17:21:00,42.6,21.7,30.10,NW,321,0.0,2.0,43,0.00,,,0.00,WeatherCatV1.13B119,2013-01-25 23:21:00,
2013-01-25 17:26:00,42.2,21.3,30.10,NW,321,0.0,1.0,43,0.00,,,0.00,WeatherCatV1.13B119,2013-01-25 23:26:00,
2013-01-25 17:31:00,41.9,21.6,30.11,NW,321,0.0,0.0,44,0.00,,,0.00,WeatherCatV1.13B119,2013-01-25 23:31:00,
2013-01-25 17:36:00,41.6,21.9,30.11,NW,321,0.0,1.0,45,0.00,,,0.00,WeatherCatV1.13B119,2013-01-25 23:36:00,
2013-01-25 17:41:00,41.3,21.6,30.11,NW,321,1.0,2.0,45,0.00,,,0.00,WeatherCatV1.13B119,2013-01-25 23:41:00,
2013-01-25 17:46:00,41.1,21.9,30.11,NW,321,0.0,3.0,46,0.00,,,0.00,WeatherCatV1.13B119,2013-01-25 23:46:00,
2013-01-25 17:51:00,40.8,22.1,30.11,NW,321,0.0,0.0,47,0.00,,,0.00,WeatherCatV1.13B119,2013-01-25 23:51:00,
2013-01-25 17:56:00,40.2,22.1,30.11,NW,321,0.0,0.0,48,0.00,,,0.00,WeatherCatV1.13B119,2013-01-25 23:56:00,
2013-01-25 18:01:00,39.8,22.2,30.12,NW,321,0.0,0.0,49,0.00,,,0.00,WeatherCatV1.13B119,2013-01-26 00:01:00,
2013-01-25 18:06:00,39.3,22.2,30.12,NW,321,0.0,0.0,50,0.00,,,0.00,WeatherCatV1.13B119,2013-01-26 00:06:00,
2013-01-25 18:11:00,38.9,22.3,30.12,NW,321,0.0,0.0,51,0.00,,,0.00,WeatherCatV1.13B119,2013-01-26 00:11:00,
2013-01-25 18:16:00,38.5,22.0,30.12,NW,321,0.0,0.0,51,0.00,,,0.00,WeatherCatV1.13B119,2013-01-26 00:16:00,
2013-01-25 18:21:00,38.2,22.1,30.12,NW,321,0.0,0.0,52,0.00,,,0.00,WeatherCatV1.13B119,2013-01-26 00:21:00,
2013-01-25 18:26:00,37.9,22.3,30.12,NW,321,0.0,0.0,53,0.00,,,0.00,WeatherCatV1.13B119,2013-01-26 00:26:00,
2013-01-25 18:31:00,37.9,22.3,30.12,NW,321,0.0,0.0,53,0.00,,,0.00,WeatherCatV1.13B119,2013-01-26 00:31:00,
2013-01-25 18:36:00,37.8,22.2,30.12,NW,321,0.0,0.0,53,0.00,,,0.00,WeatherCatV1.13B119,2013-01-26 00:36:00,
2013-01-25 18:41:00,37.6,22.0,30.12,NW,321,0.0,0.0,53,0.00,,,0.00,WeatherCatV1.13B119,2013-01-26 00:41:00,
2013-01-25 18:46:00,37.5,22.4,30.14,NW,321,0.0,0.0,54,0.00,,,0.00,WeatherCatV1.13B119,2013-01-26 00:46:00,
2013-01-25 18:51:00,37.3,22.2,30.14,NW,321,0.0,1.0,54,0.00,,,0.00,WeatherCatV1.13B119,2013-01-26 00:51:00,
2013-01-25 18:56:00,37.3,22.2,30.14,NW,321,0.0,0.0,54,0.00,,,0.00,WeatherCatV1.13B119,2013-01-26 00:56:00,
2013-01-25 19:01:00,37.3,22.2,30.14,NW,321,0.0,1.0,54,0.00,,,0.00,WeatherCatV1.13B119,2013-01-26 01:01:00,
2013-01-25 19:06:00,37.3,22.2,30.14,NW,321,0.0,0.0,54,0.00,,,0.00,WeatherCatV1.13B119,2013-01-26 01:06:00,
2013-01-25 19:11:00,37.3,22.2,30.14,NW,321,0.0,0.0,54,0.00,,,0.00,WeatherCatV1.13B119,2013-01-26 01:11:00,
2013-01-25 19:16:00,37.2,22.1,30.14,NW,321,1.0,1.0,54,0.00,,,0.00,WeatherCatV1.13B119,2013-01-26 01:16:00,
2013-01-25 19:21:00,37.0,22.4,30.14,NW,321,1.0,2.0,55,0.00,,,0.00,WeatherCatV1.13B119,2013-01-26 01:21:00,
2013-01-25 19:26:00,37.0,22.8,30.14,NW,321,5.0,5.0,56,0.00,,,0.00,WeatherCatV1.13B119,2013-01-26 01:26:00,
2013-01-25 19:31:00,36.8,23.0,30.14,NW,321,0.0,2.0,57,0.00,,,0.00,WeatherCatV1.13B119,2013-01-26 01:31:00,
2013-01-25 19:36:00,36.5,23.1,30.14,NW,321,0.0,2.0,58,0.00,,,0.00,WeatherCatV1.13B119,2013-01-26 01:36:00,
2013-01-25 19:41:00,36.2,22.9,30.14,NW,321,0.0,3.0,58,0.00,,,0.00,WeatherCatV1.13B119,2013-01-26 01:41:00,
2013-01-25 19:46:00,35.9,23.0,30.14,NW,321,0.0,3.0,59,0.00,,,0.00,WeatherCatV1.13B119,2013-01-26 01:46:00,
2013-01-25 19:51:00,35.8,22.9,30.14,NW,321,0.0,1.0,59,0.00,,,0.00,WeatherCatV1.13B119,2013-01-26 01:51:00,
2013-01-25 19:56:00,35.6,22.7,30.14,NW,321,2.0,3.0,59,0.00,,,0.00,WeatherCatV1.13B119,2013-01-26 01:56:00,
2013-01-25 20:01:00,35.5,22.6,30.14,NW,321,0.0,4.0,59,0.00,,,0.00,WeatherCatV1.13B119,2013-01-26 02:01:00,
2013-01-25 20:06:00,35.3,22.4,30.14,NW,321,0.0,5.0,59,0.00,,,0.00,WeatherCatV1.13B119,2013-01-26 02:06:00,
2013-01-25 20:11:00,35.2,22.7,30.14,North,351,3.0,4.0,60,0.00,,,0.00,WeatherCatV1.13B119,2013-01-26 02:11:00,
2013-01-25 20:16:00,34.9,22.4,30.15,North,351,2.0,3.0,60,0.00,,,0.00,WeatherCatV1.13B119,2013-01-26 02:16:00,
2013-01-25 20:21:00,34.7,22.6,30.15,North,350,0.0,3.0,61,0.00,,,0.00,WeatherCatV1.13B119,2013-01-26 02:21:00,
2013-01-25 20:26:00,34.6,22.6,30.15,North,350,0.0,3.0,61,0.00,,,0.00,WeatherCatV1.13B119,2013-01-26 02:26:00,
2013-01-25 20:31:00,34.3,22.3,30.15,North,350,2.0,3.0,61,0.00,,,0.00,WeatherCatV1.13B119,2013-01-26 02:31:00,
2013-01-25 20:36:00,34.1,22.5,30.15,North,350,2.0,2.0,62,0.00,,,0.00,WeatherCatV1.13B119,2013-01-26 02:36:00,
2013-01-25 20:41:00,33.8,22.2,30.15,North,350,3.0,4.0,62,0.00,,,0.00,WeatherCatV1.13B119,2013-01-26 02:41:00,
2013-01-25 20:46:00,33.7,22.5,30.16,North,350,1.0,4.0,63,0.00,,,0.00,WeatherCatV1.13B119,2013-01-26 02:46:00,
2013-01-25 20:51:00,33.5,22.3,30.16,North,350,1.0,3.0,63,0.00,,,0.00,WeatherCatV1.13B119,2013-01-26 02:51:00,
2013-01-25 20:56:00,33.4,22.2,30.16,North,350,0.0,2.0,63,0.00,,,0.00,WeatherCatV1.13B119,2013-01-26 02:56:00,
2013-01-25 21:01:00,33.4,22.6,30.16,North,350,0.0,3.0,64,0.00,,,0.00,WeatherCatV1.13B119,2013-01-26 03:01:00,
2013-01-25 21:06:00,33.4,22.6,30.16,North,350,2.0,2.0,64,0.00,,,0.00,WeatherCatV1.13B119,2013-01-26 03:06:00,
2013-01-25 21:11:00,33.2,22.4,30.16,North,350,0.0,0.0,64,0.00,,,0.00,WeatherCatV1.13B119,2013-01-26 03:11:00,
2013-01-25 21:16:00,33.1,22.3,30.15,North,350,0.0,2.0,64,0.00,,,0.00,WeatherCatV1.13B119,2013-01-26 03:16:00,
2013-01-25 21:21:00,32.9,22.1,30.15,North,350,0.0,2.0,64,0.00,,,0.00,WeatherCatV1.13B119,2013-01-26 03:21:00,
2013-01-25 21:26:00,32.8,22.3,30.15,North,350,0.0,0.0,65,0.00,,,0.00,WeatherCatV1.13B119,2013-01-26 03:26:00,
2013-01-25 21:31:00,32.7,22.3,30.16,North,350,0.0,0.0,65,0.00,,,0.00,WeatherCatV1.13B119,2013-01-26 03:31:00,
2013-01-25 21:36:00,32.5,22.1,30.16,North,349,3.0,5.0,65,0.00,,,0.00,WeatherCatV1.13B119,2013-01-26 03:36:00,
2013-01-25 21:41:00,32.5,22.1,30.16,North,349,0.0,0.0,65,0.00,,,0.00,WeatherCatV1.13B119,2013-01-26 03:41:00,
2013-01-25 21:46:00,32.4,22.0,30.17,North,349,0.0,0.0,65,0.00,,,0.00,WeatherCatV1.13B119,2013-01-26 03:46:00,
2013-01-25 21:51:00,32.2,22.1,30.17,North,349,0.0,0.0,66,0.00,,,0.00,WeatherCatV1.13B119,2013-01-26 03:51:00,
2013-01-25 21:56:00,31.9,21.5,30.17,North,349,0.0,0.0,65,0.00,,,0.00,WeatherCatV1.13B119,2013-01-26 03:56:00,
2013-01-25 22:01:00,31.8,21.8,30.17,North,349,1.0,1.0,66,0.00,,,0.00,WeatherCatV1.13B119,2013-01-26 04:01:00,
2013-01-25 22:06:00,31.5,21.5,30.17,North,350,0.0,1.0,66,0.00,,,0.00,WeatherCatV1.13B119,2013-01-26 04:06:00,
2013-01-25 22:11:00,31.3,21.6,30.17,North,350,0.0,0.0,67,0.00,,,0.00,WeatherCatV1.13B119,2013-01-26 04:11:00,
2013-01-25 22:16:00,31.2,21.5,30.16,North,350,0.0,0.0,67,0.00,,,0.00,WeatherCatV1.13B119,2013-01-26 04:16:00,
2013-01-25 22:21:00,31.0,21.3,30.16,North,350,0.0,0.0,67,0.00,,,0.00,WeatherCatV1.13B119,2013-01-26 04:21:00,
2013-01-25 22:26:00,30.7,21.1,30.16,North,350,0.0,0.0,67,0.00,,,0.00,WeatherCatV1.13B119,2013-01-26 04:26:00,
2013-01-25 22:31:00,30.4,21.1,30.16,North,350,0.0,0.0,68,0.00,,,0.00,WeatherCatV1.13B119,2013-01-26 04:31:00,
2013-01-25 22:36:00,30.3,21.4,30.16,North,350,0.0,0.0,69,0.00,,,0.00,WeatherCatV1.13B119,2013-01-26 04:36:00,
2013-01-25 22:41:00,30.1,21.2,30.16,North,350,0.0,0.0,69,0.00,,,0.00,WeatherCatV1.13B119,2013-01-26 04:41:00,
2013-01-25 22:46:00,30.0,21.1,30.17,North,350,0.0,0.0,69,0.00,,,0.00,WeatherCatV1.13B119,2013-01-26 04:46:00,
2013-01-25 22:51:00,29.8,20.9,30.17,North,350,1.0,2.0,69,0.00,,,0.00,WeatherCatV1.13B119,2013-01-26 04:51:00,
2013-01-25 22:56:00,29.7,21.1,30.17,NE,35,1.0,5.0,70,0.00,,,0.00,WeatherCatV1.13B119,2013-01-26 04:56:00,
2013-01-25 23:00:00,29.5,20.9,30.16,NNE,32,0.0,3.0,70,0.00,,,0.00,WeatherCatV1.13B119,2013-01-26 05:00:00,
2013-01-25 23:05:00,29.5,20.9,30.16,NNE,28,0.0,2.0,70,0.00,,,0.00,WeatherCatV1.13B119,2013-01-26 05:05:00,
2013-01-25 23:10:00,29.4,20.8,30.16,NNE,30,2.0,2.0,70,0.00,,,0.00,WeatherCatV1.13B119,2013-01-26 05:10:00,
2013-01-25 23:15:00,29.4,21.2,30.16,NNE,30,1.0,4.0,71,0.00,,,0.00,WeatherCatV1.13B119,2013-01-26 05:15:00,
2013-01-25 23:20:00,29.3,21.1,30.16,NE,38,0.0,5.0,71,0.00,,,0.00,WeatherCatV1.13B119,2013-01-26 05:20:00,
2013-01-25 23:25:00,29.1,20.9,30.16,NE,34,4.0,4.0,71,0.00,,,0.00,WeatherCatV1.13B119,2013-01-26 05:25:00,
2013-01-25 23:30:00,29.0,20.8,30.17,NE,54,2.0,6.0,71,0.00,,,0.00,WeatherCatV1.13B119,2013-01-26 05:30:00,
2013-01-25 23:35:00,28.8,20.6,30.17,NNE,18,4.0,5.0,71,0.00,,,0.00,WeatherCatV1.13B119,2013-01-26 05:35:00,
2013-01-25 23:40:00,28.7,20.2,30.17,NNE,30,2.0,4.0,70,0.00,,,0.00,WeatherCatV1.13B119,2013-01-26 05:40:00,
2013-01-25 23:45:00,28.4,20.2,30.17,NNE,30,3.0,4.0,71,0.00,,,0.00,WeatherCatV1.13B119,2013-01-26 05:45:00,
2013-01-25 23:50:00,28.2,20.0,30.17,NE,53,4.0,7.0,71,0.00,,,0.00,WeatherCatV1.13B119,2013-01-26 05:50:00,
2013-01-25 23:55:00,27.9,19.7,30.17,NE,54,0.0,3.0,71,0.00,,,0.00,WeatherCatV1.13B119,2013-01-26 05:55:00,